Flag for U.S.A. Weather past 2 weeks in Jersey City, New Jersey, U.S.A.

Now
75 °F

Passing clouds.


Feels Like: 76 °F
Forecast: 72 / 84 °F
Wind: 6 mph from South

Location: Newark International Airport

Current Time: Jul 5, 2015 at 11:50:25 PM

Latest Report: Jul 5, 2015 at 10:51 PM


Visibility: 10 mi

Pressure: 30.13 "Hg

Humidity: 76%

Dew point: 67 °F

Location of Jersey CityLocation

Historic Weather in Jersey City — Graph

°F

Jersey City temperature yesterday

Maximum temperature yesterday: 77 °F (at 4:51 PM)
Minimum temperature yesterday: 70 °F (at 3:51 AM)
Average temperature yesterday: 73 °F

Past Weeks' High & Low Weather Summary

 TemperatureHumidityPressure
High92 °F (Jun 23, 4:51 PM)100% (Jun 21, 3:58 AM)30.13 "Hg (Jun 21, 3:58 AM)
Low61 °F (Jun 27, 8:51 PM)31% (Jun 25, 12:51 PM)29.65 "Hg (Jun 28, 5:51 AM)
Average75 °F63%29.91 "Hg
* Reported Jun 20 9:51 PM — Jul 5 9:51 PM, Jersey City, Weather by CustomWeather, © 2015

Note: Actual official high and low records may vary slightly from our data, if they occured in-between our weather recording intervals... More about our weather records

Advertising

Jersey City weather history for previous 24 hours

 ConditionsComfort  
Time TempWeatherWind HumidityBarometerVisibility
9:51 PM
Sun, Jul 5
77 °FPassing clouds.5 mph71%30.12 "Hg10 mi
8:51 PM77 °FPartly sunny.3 mph69%30.11 "Hg10 mi
7:51 PM79 °FPartly sunny.6 mph60%30.10 "Hg10 mi
6:51 PM83 °FBroken clouds.6 mph44%30.09 "Hg10 mi
5:51 PM84 °FPartly sunny.8 mph41%30.09 "Hg10 mi
4:51 PM84 °FPartly sunny.6 mph45%30.09 "Hg10 mi
3:51 PM83 °FPartly sunny.6 mph48%30.09 "Hg10 mi
2:51 PM82 °FBroken clouds.6 mph49%30.10 "Hg10 mi
1:51 PM83 °FPartly sunny.No wind50%30.12 "Hg10 mi
12:51 PM81 °FBroken clouds.5 mph53%30.11 "Hg10 mi
11:51 AM79 °FBroken clouds.6 mph56%30.12 "Hg10 mi
10:51 AM78 °FPartly sunny.7 mph58%30.12 "Hg10 mi
9:51 AM76 °FPartly sunny.7 mph62%30.13 "Hg10 mi
8:51 AM73 °FPartly sunny.6 mph69%30.12 "Hg9 mi
7:51 AM72 °FPartly sunny.5 mph68%30.10 "Hg10 mi
6:51 AM70 °FBroken clouds.6 mph76%30.08 "Hg10 mi
5:51 AM68 °FPartly cloudy.6 mph76%30.07 "Hg10 mi
4:51 AM70 °FOvercast.6 mph71%30.06 "Hg10 mi
3:51 AM70 °FMostly cloudy.5 mph68%30.04 "Hg10 mi
2:51 AM70 °FPartly cloudy.No wind68%30.03 "Hg10 mi
1:51 AM71 °FPartly cloudy.3 mph63%30.04 "Hg10 mi
12:51 AM72 °FPassing clouds.3 mph59%30.03 "Hg10 mi
11:51 PM
Sat, Jul 4
72 °FPartly cloudy.7 mph57%30.01 "Hg10 mi
Weather by CustomWeather, © 2015

See weather overviewHow to use our weather pages